[[{"header":{"parameterUnit":"m.s-1","parameterCategory":1,"la1":30.2991,"la2":30.254,"lo1":-89.0895,"lo2":-89.0444,"dy":0.0017,"dx":0.0017,"nx":28,"ny":28,"refTime":"2025-12-29T03:00:00:Z","depth":0,"parameterNumber":2,"parameterNumberName":"U-component_of_WINDS"},"data":[0,0,0,0,0,0,0,0,0,0,0,0,0,0,0,0,0,0,0,0,0,0,0,0,0,0,0,0,0,0,0,0,0,0,0,0,0,0,0,0,0,0,0,0,0,0,0,0,0,0,0,0,0,0,0,0,0,0,1.9195,1.9195,0,1.9197,1.9197,1.9197,1.9171,1.9171,1.917,1.9169,1.9171,1.9172,1.9172,0,0,0,0,0,0,0,0,0,0,0,0,0,1.9169,1.917,1.9195,1.9195,1.9195,1.9197,1.9197,1.9197,1.9171,1.9171,1.917,1.9169,1.9171,1.9172,1.9173,0,0,0,0,0,0,0,0,0,0,0,0,0,1.9177,1.917,1.9195,1.9182,1.9181,1.9197,1.9197,1.9197,1.9172,1.9171,1.9169,1.9169,1.9171,1.9172,1.9173,1.92,0,0,1.9176,1.9176,0,0,0,0,0,0,0,0,1.9176,1.9178,1.9184,1.9183,1.9182,1.9183,1.9189,1.9198,1.9172,1.9175,1.9169,1.9168,1.9176,1.9176,1.9179,1.92,1.92,1.9176,1.9177,1.9177,1.9177,0,0,0,0,0,0,0,1.9176,1.9177,1.9195,1.9184,1.9183,1.9177,1.9177,1.919,1.9181,1.9175,1.9173,1.9174,1.9175,1.9178,1.9179,1.92,1.9176,1.9177,1.9178,1.9178,1.9246,1.9247,0,0,0,0,0,0,1.9177,1.9177,1.9195,1.9195,1.9176,1.9178,1.9178,1.9183,1.9181,1.918,1.9175,1.9172,1.9177,1.9178,1.9179,1.9212,1.9177,1.9178,1.9179,1.9245,1.9246,1.9248,0,0,0,0,0,0,1.9176,1.9179,1.9195,1.9186,1.9187,1.918,1.9186,1.9184,1.9187,1.9181,1.9179,1.9179,1.9176,1.9177,1.9195,1.9212,1.9178,1.9179,1.9244,1.9245,1.9247,1.9278,0,0,0,0,0,0,1.9176,1.9179,1.9189,1.9186,1.9188,1.9212,1.9187,1.9185,1.9189,1.9186,1.9185,1.9184,1.9175,1.9194,1.9197,1.9212,1.918,1.9242,1.9244,1.9246,1.9275,1.928,1.9285,0,0,0,0,0,1.9175,1.9197,1.9189,1.9192,1.92,1.9213,1.9214,1.9204,1.919,1.9201,1.9197,1.9184,1.921,1.9196,1.9199,1.9215,1.9241,1.9244,1.9246,1.9273,1.9279,1.9284,0,0,0,0,0,0,1.9201,1.9196,1.9188,1.9209,1.9212,1.9208,1.9221,1.921,1.9216,1.9213,1.9201,1.9201,1.9221,1.922,1.9205,1.9243,1.9223,1.9226,1.9242,1.9248,1.9253,1.9253,1.9181,0,0,0,0,0,1.9209,1.9219,1.9215,1.9234,1.9236,1.9228,1.9233,1.9226,1.9227,1.9228,1.9225,1.9228,1.9236,1.9242,1.925,1.9275,1.9275,1.9288,1.9293,1.9297,1.9299,1.9314,1.932,1.9256,1.9256,1.9256,0,0,1.9226,1.9225,1.9232,1.9239,1.924,1.9251,1.9229,1.9241,1.925,1.923,1.9247,1.9246,1.9247,1.9269,1.9279,1.9269,1.9317,1.93,1.9303,1.9304,1.9317,1.9323,1.9329,1.9258,1.9258,1.9258,0,0,1.9262,1.9262,1.9279,1.9281,1.9283,1.9278,1.9282,1.9281,1.9279,1.9297,1.9282,1.9292,1.9307,1.9309,1.9313,1.9353,1.9341,1.9356,1.938,1.9394,1.9399,1.9404,1.9419,1.9424,1.9359,1.9359,1.9359,0,1.9283,1.9299,1.9289,1.9303,1.9307,1.9291,1.9308,1.931,1.9315,1.9318,1.9307,1.9327,1.9327,1.935,1.936,1.9363,1.9368,1.9355,1.94,1.9404,1.9408,1.9422,1.9428,1.936,1.936,1.936,1.936,0,1.9325,1.9337,1.935,1.9356,1.9361,1.9377,1.937,1.9377,1.937,1.9366,1.9385,1.9385,1.9393,1.9398,1.939,1.942,1.9414,1.9402,1.9382,1.9416,1.9429,1.9434,1.9363,1.9362,1.9362,1.9361,0,0,1.9376,1.9377,1.9383,1.9385,1.9387,1.9396,1.9412,1.942,1.9427,1.9431,1.9444,1.9459,1.9448,1.9451,1.9444,1.9457,1.949,1.9443,1.9442,1.9452,1.9524,1.9534,1.954,1.9482,1.9483,1.9484,1.9524,0,1.9412,1.9439,1.9431,1.9458,1.9469,1.9455,1.9468,1.9471,1.9469,1.9479,1.9476,1.9487,1.9471,1.9473,1.9485,1.9483,1.9504,1.948,1.9495,1.9495,1.9495,1.9547,1.9556,1.9594,1.9529,1.953,1.9531,0,1.9458,1.9464,1.9493,1.9494,1.9499,1.9511,1.9519,1.9528,1.9532,1.953,1.9535,1.9526,1.9542,1.9522,1.9545,1.9529,1.9535,1.9535,1.9536,1.9537,1.9515,1.9549,1.9606,1.9612,1.9539,1.9538,1.9537,0,1.9493,1.9509,1.9528,1.9531,1.9534,1.9543,1.9544,1.9547,1.9553,1.956,1.9564,1.9573,1.9578,1.9585,1.9579,1.9565,1.9603,1.9583,1.9602,1.9602,1.961,1.9609,1.9669,1.9614,1.9614,1.9613,1.9613,0,1.9534,1.9552,1.9545,1.9556,1.9577,1.9568,1.9588,1.9588,1.9591,1.9603,1.9591,1.9603,1.9594,1.9605,1.96,1.962,1.9622,1.9621,1.962,1.9622,1.9622,1.9626,1.9623,1.9615,1.9615,1.9614,1.9614,0,1.9576,1.9572,1.9592,1.9594,1.9594,1.9609,1.961,1.9622,1.9619,1.9635,1.9638,1.9634,1.9647,1.9642,1.9655,1.9652,1.9678,1.9673,1.9676,1.9675,1.9695,1.9693,1.9758,1.9767,1.9706,1.9707,1.9707,0,1.9603,1.9616,1.962,1.9627,1.963,1.9641,1.9648,1.9641,1.9648,1.9655,1.9666,1.9677,1.9686,1.9707,1.9706,1.9716,1.9712,1.9734,1.9713,1.9716,1.9713,1.9712,1.9714,1.9738,1.9738,1.9739,1.9739,0,1.965,1.9648,1.9658,1.9668,1.9677,1.9684,1.969,1.9697,1.969,1.9699,1.9713,1.972,1.9734,1.9746,1.9756,1.9757,1.9748,1.9746,1.9751,1.9754,1.9756,1.9756,1.9688,1.9745,1.9744,1.9744,1.9743,1.9743,1.9686,1.9698,1.9703,1.9715,1.9719,1.9725,1.9737,1.9736,1.9747,1.9759,1.9754,1.9769,1.9774,1.9786,1.979,1.9802,1.9794,1.9801,1.9803,1.9804,1.9807,1.9754,1.9804,1.9804,1.9804,1.9803,1.9803,0,1.9733,1.9736,1.9747,1.9757,1.9767,1.9758,1.9765,1.9774,1.9787,1.9793,1.9803,1.9819,1.9831,1.9831,1.9843,1.9853,1.9849,1.9856,1.9855,1.9856,1.9814,1.9809,1.9859,1.9859,1.9859,1.9859,1.9859,1.9859,1.9759,1.9779,1.9778,1.9801,1.9803,1.9819,1.9824,1.983,1.9835,1.9853,1.9864,1.9864,1.9868,1.988,1.9891,1.9891,1.9896,1.9905,1.9904,1.9864,1.9859,1.9853,1.9848,1.9906,1.9906,1.9944,1.9945,1.9945]},{"header":{"parameterUnit":"m.s-1","parameterCategory":1,"la1":30.2991,"la2":30.254,"lo1":-89.0895,"lo2":-89.0444,"dy":0.0017,"dx":0.0017,"nx":28,"ny":28,"refTime":"2025-12-29T03:00:00:Z","depth":0,"parameterNumber":3,"parameterNumberName":"V-component_of_WINDS"},"data":[0,0,0,0,0,0,0,0,0,0,0,0,0,0,0,0,0,0,0,0,0,0,0,0,0,0,0,0,0,0,0,0,0,0,0,0,0,0,0,0,0,0,0,0,0,0,0,0,0,0,0,0,0,0,0,0,0,0,-5.5244,-5.5245,0,-5.5342,-5.5343,-5.5344,-5.5336,-5.5335,-5.5333,-5.5332,-5.5427,-5.5431,-5.5434,0,0,0,0,0,0,0,0,0,0,0,0,0,-5.5047,-5.505,-5.5244,-5.5245,-5.5247,-5.5342,-5.5343,-5.5345,-5.5337,-5.5335,-5.5333,-5.5331,-5.5426,-5.543,-5.5435,0,0,0,0,0,0,0,0,0,0,0,0,0,-5.5137,-5.5052,-5.5244,-5.5254,-5.5256,-5.5342,-5.5343,-5.5345,-5.5337,-5.5335,-5.5333,-5.5331,-5.5424,-5.543,-5.5435,-5.5515,0,0,-5.5453,-5.5456,0,0,0,0,0,0,0,0,-5.5132,-5.5144,-5.5252,-5.5254,-5.5256,-5.5325,-5.5308,-5.5402,-5.5338,-5.5306,-5.5332,-5.5329,-5.5394,-5.5402,-5.5425,-5.552,-5.5524,-5.5454,-5.5457,-5.546,-5.5461,0,0,0,0,0,0,0,-5.5126,-5.514,-5.5283,-5.5253,-5.5256,-5.5253,-5.5263,-5.5326,-5.5361,-5.5309,-5.5308,-5.532,-5.5395,-5.542,-5.5428,-5.5525,-5.5454,-5.5459,-5.5462,-5.5465,-5.5691,-5.5694,0,0,0,0,0,0,-5.5118,-5.5135,-5.528,-5.5286,-5.5188,-5.5258,-5.527,-5.5305,-5.5361,-5.5367,-5.5322,-5.532,-5.5411,-5.5421,-5.5431,-5.5529,-5.546,-5.5465,-5.5469,-5.5689,-5.5692,-5.5695,0,0,0,0,0,0,-5.5114,-5.5131,-5.5276,-5.521,-5.5229,-5.5264,-5.5303,-5.5308,-5.5333,-5.5371,-5.5376,-5.5341,-5.541,-5.5423,-5.5495,-5.5532,-5.5468,-5.5473,-5.5686,-5.569,-5.5693,-5.5726,0,0,0,0,0,0,-5.5108,-5.5129,-5.5161,-5.5211,-5.5232,-5.534,-5.5306,-5.5312,-5.5344,-5.5341,-5.539,-5.5396,-5.5409,-5.5487,-5.5501,-5.5539,-5.5478,-5.5683,-5.5688,-5.5692,-5.5721,-5.573,-5.5738,0,0,0,0,0,-5.5101,-5.5165,-5.5163,-5.518,-5.5273,-5.5342,-5.5354,-5.5369,-5.5347,-5.5378,-5.5403,-5.5395,-5.5526,-5.5494,-5.551,-5.5551,-5.568,-5.5686,-5.5692,-5.5718,-5.5728,-5.5737,0,0,0,0,0,0,-5.5115,-5.5171,-5.517,-5.5252,-5.5292,-5.534,-5.538,-5.5379,-5.5425,-5.5421,-5.5436,-5.5447,-5.552,-5.5542,-5.5506,-5.5632,-5.56,-5.5609,-5.5614,-5.5625,-5.5633,-5.5626,-5.5483,0,0,0,0,0,-5.5128,-5.5181,-5.5227,-5.5295,-5.5315,-5.5345,-5.5375,-5.5384,-5.5425,-5.5442,-5.5472,-5.5511,-5.5562,-5.5594,-5.5643,-5.5725,-5.5735,-5.5761,-5.5769,-5.5775,-5.5783,-5.5829,-5.5841,-5.5713,-5.5713,-5.5713,0,0,-5.5155,-5.5192,-5.5224,-5.5299,-5.5331,-5.5385,-5.5359,-5.5416,-5.5456,-5.545,-5.5521,-5.5545,-5.559,-5.5668,-5.5703,-5.5689,-5.5821,-5.5782,-5.5787,-5.5791,-5.5836,-5.5848,-5.5859,-5.5717,-5.5717,-5.5716,0,0,-5.5231,-5.5265,-5.5326,-5.536,-5.541,-5.543,-5.5444,-5.5493,-5.5509,-5.5581,-5.5579,-5.5625,-5.5711,-5.5744,-5.5772,-5.5863,-5.5858,-5.5879,-5.592,-5.5965,-5.5975,-5.5984,-5.6017,-5.6029,-5.5886,-5.5886,-5.5886,0,-5.5257,-5.534,-5.5357,-5.5416,-5.5449,-5.5448,-5.551,-5.5541,-5.5604,-5.5626,-5.5609,-5.5719,-5.5749,-5.5836,-5.5858,-5.5881,-5.5897,-5.5873,-5.5973,-5.5982,-5.599,-5.6022,-5.6034,-5.5888,-5.5888,-5.5888,-5.5888,0,-5.537,-5.5427,-5.547,-5.5534,-5.5571,-5.5631,-5.5656,-5.5692,-5.5698,-5.5719,-5.5792,-5.5829,-5.5886,-5.5907,-5.5911,-5.5994,-5.5983,-5.5969,-5.5938,-5.6004,-5.6034,-5.6047,-5.5892,-5.5891,-5.589,-5.589,0,0,-5.5456,-5.5531,-5.5546,-5.5576,-5.5632,-5.5676,-5.5736,-5.5794,-5.5824,-5.5868,-5.5918,-5.5992,-5.5981,-5.6012,-5.6021,-5.606,-5.6131,-5.6041,-5.6043,-5.6057,-5.6225,-5.6235,-5.6249,-5.6128,-5.613,-5.6132,-5.6221,0,-5.5539,-5.5647,-5.5665,-5.5759,-5.5813,-5.5814,-5.5866,-5.5906,-5.5928,-5.5975,-5.5998,-5.6051,-5.6031,-5.605,-5.6089,-5.6114,-5.6165,-5.6108,-5.6174,-5.6176,-5.6163,-5.6265,-5.6276,-5.6358,-5.6233,-5.6235,-5.6237,0,-5.5649,-5.5699,-5.5799,-5.585,-5.5873,-5.592,-5.5975,-5.6021,-5.6066,-5.6079,-5.6116,-5.612,-5.6181,-5.6148,-5.6233,-5.6194,-5.6222,-5.6238,-5.6242,-5.6248,-5.621,-5.6274,-5.6384,-5.6397,-5.6255,-5.6254,-5.6252,0,-5.5703,-5.5794,-5.5867,-5.5892,-5.5953,-5.5986,-5.6013,-5.6056,-5.609,-5.6138,-5.616,-5.6213,-5.6242,-5.6283,-5.6301,-5.6275,-5.6385,-5.6353,-5.6397,-5.6397,-5.6419,-5.6418,-5.6536,-5.6438,-5.6437,-5.6437,-5.6437,0,-5.5793,-5.5854,-5.5892,-5.5936,-5.6006,-5.6026,-5.6093,-5.6118,-5.6157,-5.6206,-5.621,-5.6255,-5.6277,-5.6325,-5.634,-5.6408,-5.6421,-5.6433,-5.6436,-5.6433,-5.6431,-5.6451,-5.6446,-5.644,-5.644,-5.6439,-5.6438,0,-5.5864,-5.5892,-5.5971,-5.6024,-5.6039,-5.6087,-5.6132,-5.6175,-5.6197,-5.6259,-5.6274,-5.6308,-5.6366,-5.6388,-5.6458,-5.6468,-5.6547,-5.6545,-5.6532,-5.6533,-5.6576,-5.6572,-5.6711,-5.673,-5.6619,-5.662,-5.6621,0,-5.592,-5.5968,-5.6027,-5.6061,-5.609,-5.6144,-5.618,-5.6201,-5.6238,-5.6294,-5.633,-5.6388,-5.6436,-5.6527,-5.6557,-5.6611,-5.661,-5.6656,-5.6618,-5.6614,-5.6612,-5.6609,-5.6614,-5.6662,-5.6663,-5.6664,-5.6665,0,-5.6016,-5.6028,-5.608,-5.6138,-5.6181,-5.6227,-5.6271,-5.6298,-5.6327,-5.6368,-5.6428,-5.6465,-5.6538,-5.6595,-5.6651,-5.6676,-5.6676,-5.6677,-5.669,-5.6687,-5.6678,-5.6684,-5.6551,-5.6673,-5.6673,-5.6672,-5.6672,-5.6671,-5.6081,-5.6125,-5.6174,-5.6232,-5.6269,-5.6311,-5.6354,-5.6383,-5.6434,-5.6497,-5.6506,-5.657,-5.6615,-5.669,-5.6719,-5.6769,-5.6757,-5.6775,-5.678,-5.6785,-5.6788,-5.667,-5.6779,-5.6778,-5.6778,-5.6778,-5.6778,0,-5.6178,-5.6211,-5.6264,-5.6328,-5.6374,-5.6372,-5.6421,-5.6459,-5.6517,-5.656,-5.6608,-5.6677,-5.6733,-5.6769,-5.6825,-5.6858,-5.6859,-5.6872,-5.687,-5.6876,-5.6795,-5.6778,-5.6871,-5.6871,-5.6871,-5.6871,-5.6871,-5.6871,-5.6234,-5.6308,-5.6326,-5.6417,-5.6449,-5.6514,-5.6543,-5.6581,-5.6616,-5.6694,-5.6742,-5.6766,-5.6806,-5.6866,-5.6917,-5.6926,-5.6946,-5.696,-5.6968,-5.6891,-5.6882,-5.6873,-5.6857,-5.6965,-5.6965,-5.7045,-5.7046,-5.7047]}]]